This demonstration page uses our WeatherBlox Daily Observations layout. Learn more.

Left ArrowRight Arrow

39.51506, -84.39828

Hourly Observations for December 27, 2018

Temp ( °F °C ) Dew Point ( °F °C ) Humidity (%) Winds ( mph kmh ) Pressure ( in mb ) Visibility ( mi km ) Precip ( " mm )
12:15 am 00:15 Clear 29 -1.7 28 -2.5 94 94 NNE 5 7 30.39 1029 10 16 N/A
12:35 am 00:35 Clear 29 -1.4 28 -2.3 94 94 NNE 5 7 30.39 1029 10 16 N/A
12:55 am 00:55 Clear 32 0.1 29 -1.6 88 88 NNE 5 7 30.39 1029 10 16 N/A
1:15 am 01:15 Clear 33 0.4 29 -1.5 87 87 N 3 6 30.39 1029 10 16 N/A
1:35 am 01:35 Clear 34 0.9 30 -1.3 85 85 NNE 5 7 30.36 1028 10 16 N/A
1:55 am 01:55 Clear 35 1.5 30 -1.2 82 82 NE 3 6 30.36 1028 10 16 N/A
2:15 am 02:15 Clear 34 1.2 30 -1.2 84 84 N 3 6 30.36 1028 10 16 N/A
2:35 am 02:35 Clear 35 1.5 30 -1.3 82 82 N 5 7 30.36 1028 10 16 N/A
2:55 am 02:55 Clear 34 0.9 29 -1.7 83 83 NNE 5 7 30.36 1028 10 16 N/A
3:15 am 03:15 Clear 34 1.1 29 -1.9 81 81 N 6 9 30.33 1027 10 16 N/A
3:35 am 03:35 Clear 34 0.9 29 -1.9 82 82 NNE 5 7 30.33 1027 10 16 N/A
3:55 am 03:55 Clear 34 1.2 29 -1.6 82 82 N 5 7 30.33 1027 10 16 N/A
4:15 am 04:15 Clear 36 2.3 30 -1.3 77 77 NNE 5 7 30.33 1027 10 16 N/A
4:35 am 04:35 Clear 36 2.3 29 -1.4 77 77 NE 5 7 30.30 1026 10 16 N/A
4:55 am 04:55 Clear 35 1.5 29 -1.6 80 80 NNE 3 6 30.30 1026 10 16 N/A
5:15 am 05:15 Clear 34 0.9 29 -1.5 84 84 N 3 6 30.30 1026 10 16 N/A
5:35 am 05:35 Clear 33 0.8 29 -1.4 85 85 NNE 6 9 30.30 1026 10 16 N/A
5:55 am 05:55 Clear 34 1.1 30 -1.3 84 84 NNE 5 7 30.30 1026 10 16 N/A
6:15 am 06:15 Clear 34 1.1 29 -1.4 84 84 NNE 5 7 30.30 1026 10 16 N/A
6:35 am 06:35 Cloudy 34 1.2 30 -1 85 85 NNE 6 9 30.27 1025 10 16 N/A
6:55 am 06:55 Cloudy 35 1.7 31 -0.7 84 84 N 5 7 30.27 1025 10 16 N/A
7:15 am 07:15 Cloudy 35 1.8 31 -0.5 85 85 NNE 5 7 30.27 1025 10 16 N/A
7:35 am 07:35 Clear 35 1.6 31 -0.8 84 84 NNE 5 7 30.27 1025 10 16 N/A
7:55 am 07:55 Clear 36 2.3 31 -0.6 81 81 NE 5 7 30.27 1025 10 16 N/A
8:15 am 08:15 Sunny 36 2.3 31 -0.7 81 81 N 5 7 30.24 1024 10 16 N/A
8:35 am 08:35 Sunny 37 2.7 31 -0.5 80 80 N 3 6 30.24 1024 10 16 N/A
8:55 am 08:55 Partly Cloudy 38 3.1 32 -0.1 80 80 N N/A 30.27 1025 10 16 N/A
9:15 am 09:15 Cloudy 39 4.1 32 undefined 75 75 ESE 3 6 30.27 1025 10 16 N/A
9:35 am 09:35 Partly Cloudy 41 5.1 32 -0.1 69 69 N N/A 30.27 1025 10 16 N/A
9:55 am 09:55 Cloudy 42 5.5 32 0.2 69 69 N N/A 30.21 1023 10 16 N/A
10:15 am 10:15 Cloudy 43 6 32 0.2 67 67 ESE 3 6 30.21 1023 10 16 N/A
10:35 am 10:35 Cloudy 42 5.7 33 0.4 69 69 NNE 3 6 30.21 1023 10 16 N/A
10:55 am 10:55 Mostly Cloudy 43 6.3 34 1 69 69 NE 3 6 30.18 1022 10 16 N/A
11:15 am 11:15 Cloudy 44 6.6 34 1.2 69 69 N N/A 30.18 1022 10 16 N/A
11:35 am 11:35 Cloudy 44 6.7 35 1.4 69 69 N N/A 30.15 1021 10 16 N/A
11:55 am 11:55 Cloudy with Rain 45 7.3 35 1.5 67 67 ESE 3 6 30.15 1021 5 8 N/A
12:15 pm 12:15 Cloudy with Light Rain 44 6.8 38 3.2 78 78 ENE 5 7 30.12 1020 10 16 N/A
12:35 pm 12:35 Cloudy with Light Rain 44 6.9 38 3.3 78 78 N N/A 30.12 1020 10 16 N/A
12:55 pm 12:55 Cloudy with Light Rain 44 6.6 40 4.2 85 85 NE 5 7 30.09 1019 10 16 0.01 0.25
1:15 pm 13:15 Cloudy with Light Rain 43 6.2 40 4.4 88 88 NE 6 9 30.06 1018 10 16 0.01 0.25
1:35 pm 13:35 Cloudy with Light Rain 44 6.4 40 4.7 89 89 N N/A 30.06 1018 10 16 0.01 0.25
1:55 pm 13:55 Cloudy with Light Rain 44 6.4 41 4.9 90 90 N N/A 30.06 1018 7 11 0.02 0.51
2:15 pm 14:15 Cloudy with Light Rain 45 7 40 4.3 83 83 ESE 3 6 30.06 1018 5 8 0.01 0.25
2:35 pm 14:35 Cloudy with Rain 44 6.7 40 4.6 87 87 ESE 3 6 30.06 1018 4 6 0.04 1.02
2:55 pm 14:55 Cloudy with Light Rain 44 6.7 41 5.1 90 90 ESE 7 11 30.03 1017 5 8 0.07 1.78
3:15 pm 15:15 Cloudy with Light Rain 45 7.3 41 5.2 87 87 SE 8 13 30.03 1017 10 16 N/A
3:35 pm 15:35 Cloudy 45 7.3 41 5.1 86 86 SE 8 13 30.03 1017 10 16 N/A
3:55 pm 15:55 Cloudy 46 7.5 41 5.1 85 85 SE 9 15 30.03 1017 10 16 N/A
4:15 pm 16:15 Cloudy 46 7.7 41 5 83 83 SE 7 11 30.03 1017 10 16 N/A
4:35 pm 16:35 Cloudy with Light Rain 46 7.9 41 5 82 82 SE 7 11 30.00 1016 10 16 N/A
4:55 pm 16:55 Cloudy 46 8 41 5.1 82 82 SE 8 13 30.00 1016 10 16 N/A
5:15 pm 17:15 Cloudy 47 8.2 41 5.1 81 81 SE 9 15 29.97 1015 10 16 N/A
5:35 pm 17:35 Mostly Cloudy 47 8.4 41 5.1 80 80 SE 9 15 29.97 1015 10 16 N/A
5:55 pm 17:55 Cloudy 48 8.7 41 5.1 78 78 SSE 8 13 29.97 1015 10 16 N/A
6:15 pm 18:15 Cloudy 48 8.9 41 5.1 77 77 SE 6 9 29.97 1015 10 16 N/A
6:35 pm 18:35 Cloudy 48 8.9 42 5.4 79 79 SW 6 9 30.00 1016 10 16 N/A
6:55 pm 18:55 Cloudy with Light Rain 46 7.8 43 6.1 89 89 SSE 5 7 30.00 1016 5 8 0.04 1.02
7:15 pm 19:15 Cloudy with Rain 46 7.7 44 6.6 93 93 SE 7 11 29.97 1015 5 8 0.04 1.02
7:35 pm 19:35 Cloudy with Light Rain 47 8.1 44 6.8 92 92 ESE 17 28 29.85 1011 10 16 0.09 2.29
7:55 pm 19:55 Partly Cloudy with Light Rain 49 9.3 45 7.4 88 88 SE 26 43 29.83 1010 10 16 0.09 2.29
8:15 pm 20:15 Partly Cloudy 50 10.1 46 7.8 86 86 S 14 22 29.83 1010 10 16 N/A
8:35 pm 20:35 Mostly Cloudy 50 10 46 7.9 87 87 S 17 28 29.85 1011 10 16 N/A
8:55 pm 20:55 Mostly Cloudy 51 10.5 47 8.3 86 86 SSW 16 26 29.88 1012 10 16 N/A
9:15 pm 21:15 Mostly Cloudy 51 10.3 47 8.4 88 88 S 9 15 29.88 1012 10 16 N/A
9:35 pm 21:35 Partly Cloudy 51 10.5 48 8.7 89 89 S 9 15 29.85 1011 10 16 N/A
9:55 pm 21:55 Cloudy 52 11.1 49 9.2 88 88 S 7 11 29.85 1011 10 16 N/A
10:15 pm 22:15 Cloudy 53 11.5 49 9.3 86 86 S 8 13 29.85 1011 10 16 N/A
10:35 pm 22:35 Cloudy 53 11.5 49 9.4 87 87 S 12 19 29.85 1011 10 16 N/A
10:55 pm 22:55 Cloudy 53 11.7 49 9.5 87 87 S 9 15 29.85 1011 10 16 N/A
11:15 pm 23:15 Cloudy 53 11.5 49 9.6 88 88 S 7 11 29.85 1011 10 16 N/A
11:35 pm 23:35 Cloudy 53 11.5 49 9.7 89 89 SW 6 9 29.85 1011 10 16 N/A
11:55 pm 23:55 Cloudy 53 11.7 50 9.9 89 89 S 6 9 29.85 1011 10 16 N/A

Powered by AerisWeather